Kahului, HI

2:10 PM HST on October 20, 2017 (GMT -1000)
Kahului

Weather History for PHOG - May, 2011

Change the Weather History Date:

Saturday, May 14, 2011

  Actual Average Record
Temperature  
Mean Temperature 77 °F 76 °F  
Max Temperature 87 °F 84 °F 91 °F (1953)
Min Temperature 66 °F 67 °F 59 °F (2012)
Degree Days  
Heating Degree Days 0 0  
Month to date heating degree days 0 0  
Since 1 July heating degree days 0 0  
Cooling Degree Days 12 11  
Month to date cooling degree days 163 141  
Year to date cooling degree days 1206 1067  
Growing Degree Days 26 (Base 50)    
Moisture  
Dew Point 63 °F    
Average Humidity 65    
Maximum Humidity 87    
Minimum Humidity 42    
Precipitation  
Precipitation 0.00 in 0.03 in 1.79 in (1963)
Month to date precipitation 1.24 0.45  
Year to date precipitation 9.17 9.21  
Snow  
Snow 0.00 in - - ()
Month to date snowfall 0.0  
Since 1 July snowfall 0.0  
Snow Depth 0.00 in    
Sea Level Pressure  
Sea Level Pressure 30.13 in    
Wind  
Wind Speed 9 mph (ENE)    
Max Wind Speed 22 mph    
Max Gust Speed 28 mph    
Visibility 10 miles    
Events      
T = Trace of Precipitation, MM = Missing Value Source: NWS Daily Summary

Daily Weather History Graph

Daily Weather History Graph

Search for Another Location

Airport or City:

Trip Planner

Search our weather history database for the weather conditions in past years. The results will help you decide how hot, cold, wet, or windy it might be!

Date:

Astronomy

May. 14, 2011 Rise Set
Actual Time 5:48 AM HST 6:55 PM HST
Civil Twilight 5:24 AM HST 7:19 PM HST
Nautical Twilight 4:56 AM HST 7:47 PM HST
Astronomical Twilight 4:27 AM HST 8:16 PM HST
Moon 4:27 PM HST (5/14) 3:23 AM HST (5/14)
Length of Visible Light 13h 54m
Length of Day
13h 07m
Waxing Gibbous, 91% of the Moon is Illuminated
May 14
Waxing Gibbous
May 17
Full
May 24
Last Quarter
Jun 1
New
Jun 8
First Quarter

Hourly Weather History & Observations

Time (HST) Temp. Heat Index Dew Point Humidity Pressure Visibility Wind Dir Wind Speed Gust Speed Precip Events Conditions
12:54 AM 71.1 °F - 63.0 °F 75% 30.13 in 10.0 mi Calm Calm - N/A   Mostly Cloudy
1:54 AM 70.0 °F - 63.0 °F 78% 30.12 in 10.0 mi Calm Calm - N/A   Partly Cloudy
2:54 AM 68.0 °F - 63.0 °F 84% 30.11 in 10.0 mi Calm Calm - N/A   Mostly Cloudy
3:54 AM 66.9 °F - 63.0 °F 87% 30.10 in 10.0 mi ESE 8.1 mph - N/A   Clear
4:54 AM 66.0 °F - 62.1 °F 87% 30.12 in 10.0 mi Calm Calm - N/A   Clear
5:54 AM 66.9 °F - 62.1 °F 84% 30.13 in 10.0 mi SE 6.9 mph - N/A   Clear
6:54 AM 69.1 °F - 63.0 °F 81% 30.15 in 10.0 mi SE 4.6 mph - N/A   Scattered Clouds
7:54 AM 75.9 °F - 63.0 °F 64% 30.16 in 10.0 mi Calm Calm - N/A   Partly Cloudy
8:54 AM 81.0 °F 82.2 °F 63.0 °F 54% 30.16 in 10.0 mi NE 15.0 mph - N/A   Partly Cloudy
9:54 AM 82.9 °F 84.4 °F 64.0 °F 53% 30.15 in 10.0 mi NE 18.4 mph 23.0 mph N/A   Partly Cloudy
10:54 AM 82.9 °F 84.4 °F 64.0 °F 53% 30.14 in 10.0 mi NE 16.1 mph 20.7 mph N/A   Partly Cloudy
11:54 AM 84.9 °F 86.1 °F 64.0 °F 49% 30.14 in 10.0 mi NE 17.3 mph 26.5 mph N/A   Partly Cloudy
12:54 PM 86.0 °F 86.1 °F 61.0 °F 43% 30.14 in 10.0 mi ENE 17.3 mph 23.0 mph N/A   Partly Cloudy
1:54 PM 84.9 °F 84.4 °F 59.0 °F 41% 30.12 in 10.0 mi NE 13.8 mph 20.7 mph N/A   Scattered Clouds
2:54 PM 84.0 °F 84.9 °F 63.0 °F 49% 30.09 in 10.0 mi NE 19.6 mph - N/A   Partly Cloudy
3:54 PM 82.9 °F 84.0 °F 63.0 °F 51% 30.09 in 10.0 mi NE 16.1 mph 24.2 mph N/A   Scattered Clouds
4:54 PM 81.0 °F 82.5 °F 64.0 °F 56% 30.09 in 10.0 mi NE 19.6 mph 25.3 mph N/A   Scattered Clouds
5:54 PM 78.1 °F - 64.0 °F 62% 30.10 in 10.0 mi ENE 15.0 mph 24.2 mph N/A   Partly Cloudy
6:54 PM 75.0 °F - 64.0 °F 69% 30.11 in 10.0 mi NE 19.6 mph 25.3 mph N/A   Partly Cloudy
7:54 PM 73.0 °F - 63.0 °F 71% 30.14 in 10.0 mi NE 11.5 mph - N/A   Clear
8:54 PM 73.0 °F - 63.0 °F 71% 30.16 in 10.0 mi ENE 11.5 mph - N/A   Clear
9:54 PM 72.0 °F - 62.1 °F 71% 30.16 in 10.0 mi ENE 10.4 mph - N/A   Clear
10:54 PM 72.0 °F - 62.1 °F 71% 30.17 in 10.0 mi ENE 6.9 mph - N/A   Clear
11:54 PM 66.9 °F - 61.0 °F 81% 30.16 in 10.0 mi South 4.6 mph - N/A   Clear